User: anonymous   Login
Location: Caltech
(34.1382°N, 118.1253°W)
Time: 04:02:47
(UTC-07:00)
Language:

PAYLOAD A - Orbit

View from above orbital plane
View from above orbital plane
View from above satellite
View from above satellite

Ground track
Ground track

The orbit data is extracted from the following two-line orbital elements,

1 27840U 03031A   16181.11422485 -.00000001  00000-0  12691-4 0  9997
2 27840  98.1957 188.0718 0099563 103.3307 257.9006 14.38857878682547
Epoch (UTC): 29 June 2016 02:44:29
Eccentricity: 0.0099563
inclination: 98.1957°
perigee height: 691 km
apogee height: 833 km
right ascension of ascending node: 188.0718°
argument of perigee: 103.3307°
revolutions per day: 14.38857878
mean anomaly at epoch: 257.9006°
orbit number at epoch: 68254

The dashed part of the orbit path shows where the satellite is in the earth's shadow,  

DLR